Madison, MN

10:51 AM CST on December 12, 2019 (GMT -0600)
Madison-Lac Qui Parle County

Weather History for KDXX - October, 2019

Change the Weather History Date:

Saturday, October 12, 2019

  Actual Average (KAQP) Record (KAQP)
Temperature  
Mean Temperature 37 °F -  
Max Temperature 39 °F 57 °F 71 °F (1997)
Min Temperature 35 °F 35 °F 17 °F (2012)
Degree Days  
Heating Degree Days 28    
Moisture  
Dew Point 30 °F    
Average Humidity 75    
Maximum Humidity 87    
Minimum Humidity 70    
Precipitation  
Precipitation 0.00 in - - ()
Sea Level Pressure  
Sea Level Pressure 29.64 in    
Wind  
Wind Speed 21 mph (West)    
Max Wind Speed 31 mph    
Max Gust Speed 43 mph    
Visibility 10 miles    
Events Rain , Snow    
Averages and records for this station are not official NWS values.
T = Trace of Precipitation, MM = Missing Value Source: NWS Daily Summary

Daily Weather History Graph

Daily Weather History Graph

Search for Another Location

Airport or City:

Astronomy

Oct. 12, 2019 Rise Set
Actual Time 7:36 AM CDT 6:45 PM CDT
Civil Twilight 7:06 AM CDT 7:14 PM CDT
Nautical Twilight 6:32 AM CDT 7:48 PM CDT
Astronomical Twilight 5:58 AM CDT 8:22 PM CDT
Moon 6:46 PM CDT 6:07 AM CDT
Length of Visible Light 12h 07m
Length of Day
11h 09m
Waxing Gibbous, 99% of the Moon is Illuminated
Oct 12
Waxing Gibbous
Oct 13
Full
Oct 21
Last Quarter
Oct 27
New
Nov 4
First Quarter

Hourly Weather History & Observations

Time (CDT) Temp. Windchill Dew Point Humidity Pressure Visibility Wind Dir Wind Speed Gust Speed Precip Events Conditions
12:15 AM 35.6 °F 24.5 °F 28.4 °F 75% 29.71 in 10.0 mi West 20.7 mph 32.2 mph N/A   Overcast
12:35 AM 35.6 °F 24.5 °F 28.4 °F 75% 29.70 in 10.0 mi West 20.7 mph 28.8 mph N/A   Overcast
12:57 AM 37.4 °F 26.1 °F 28.4 °F 70% 29.69 in 10.0 mi West 24.2 mph 31.1 mph N/A   Overcast
1:16 AM 37.4 °F 27.5 °F 28.4 °F 70% 29.69 in 10.0 mi West 18.4 mph 29.9 mph N/A   Overcast
1:35 AM 37.4 °F 26.4 °F 28.4 °F 70% 29.69 in 10.0 mi West 23.0 mph 35.7 mph N/A   Overcast
1:36 AM 37.4 °F 26.9 °F 28.4 °F 70% 29.69 in 10.0 mi West 20.7 mph 35.7 mph N/A   Overcast
1:55 AM 37.4 °F 25.9 °F 28.4 °F 70% 29.68 in 10.0 mi West 25.3 mph 33.4 mph N/A   Overcast
1:56 AM 37.4 °F 25.9 °F 28.4 °F 70% 29.68 in 10.0 mi West 25.3 mph 33.4 mph N/A   Overcast
2:19 AM 37.4 °F 27.2 °F 28.4 °F 70% 29.67 in 10.0 mi WSW 19.6 mph 25.3 mph N/A   Overcast
2:36 AM 37.4 °F 27.5 °F 28.4 °F 70% 29.67 in 10.0 mi WSW 18.4 mph 25.3 mph N/A   Mostly Cloudy
2:55 AM 37.4 °F 27.2 °F 28.4 °F 70% 29.66 in 10.0 mi WSW 19.6 mph 29.9 mph N/A   Drizzle
2:56 AM 37.4 °F 27.5 °F 28.4 °F 70% 29.66 in 10.0 mi WSW 18.4 mph 29.9 mph N/A   Drizzle
3:15 AM 35.6 °F 25.5 °F 28.4 °F 75% 29.65 in 7.0 mi WSW 17.3 mph 29.9 mph N/A   Scattered Clouds
3:16 AM 35.6 °F 24.8 °F 28.4 °F 75% 29.65 in 7.0 mi WSW 19.6 mph 31.1 mph N/A   Scattered Clouds
3:38 AM 35.6 °F 24.5 °F 30.2 °F 81% 29.64 in 10.0 mi WSW 20.7 mph 28.8 mph N/A   Scattered Clouds
3:57 AM 35.6 °F 24.8 °F 30.2 °F 81% 29.64 in 10.0 mi WSW 19.6 mph 28.8 mph N/A   Mostly Cloudy
4:16 AM 35.6 °F 25.9 °F 30.2 °F 81% 29.64 in 4.0 mi WSW 16.1 mph 24.2 mph N/A   Overcast
4:35 AM 35.6 °F 25.2 °F 30.2 °F 81% 29.63 in 10.0 mi WSW 18.4 mph 25.3 mph N/A   Scattered Clouds
4:36 AM 35.6 °F 25.5 °F 30.2 °F 81% 29.63 in 10.0 mi WSW 17.3 mph 25.3 mph N/A   Scattered Clouds
4:55 AM 35.6 °F 25.5 °F 30.2 °F 81% 29.63 in 10.0 mi WSW 17.3 mph 31.1 mph N/A   Mostly Cloudy
5:16 AM 35.6 °F 25.5 °F 30.2 °F 81% 29.62 in 10.0 mi WSW 17.3 mph 24.2 mph N/A   Overcast
5:35 AM 35.6 °F 25.5 °F 30.2 °F 81% 29.62 in 5.0 mi WSW 17.3 mph 23.0 mph N/A   Overcast
5:55 AM 37.4 °F 28.2 °F 30.2 °F 75% 29.61 in 10.0 mi West 16.1 mph 23.0 mph N/A   Overcast
5:56 AM 37.4 °F 26.9 °F 30.2 °F 75% 29.61 in 10.0 mi West 20.7 mph 24.2 mph N/A   Overcast
6:15 AM 35.6 °F 25.2 °F 32.0 °F 87% 29.61 in 1.8 mi West 18.4 mph 25.3 mph N/A Snow Light Snow
6:19 AM 35.6 °F 25.2 °F 32.0 °F 87% 29.61 in 1.5 mi West 18.4 mph 27.6 mph N/A Snow Light Snow
6:38 AM 35.6 °F 25.9 °F 32.0 °F 87% 29.60 in 10.0 mi WSW 16.1 mph 25.3 mph N/A   Overcast
6:55 AM 35.6 °F 25.2 °F 32.0 °F 87% 29.60 in 10.0 mi WSW 18.4 mph 24.2 mph N/A   Overcast
7:15 AM 35.6 °F 24.5 °F 30.2 °F 81% 29.60 in 10.0 mi West 20.7 mph 27.6 mph N/A   Overcast
7:16 AM 35.6 °F 25.9 °F 30.2 °F 81% 29.60 in 10.0 mi West 16.1 mph 27.6 mph N/A   Overcast
7:35 AM 35.6 °F 24.5 °F 32.0 °F 87% 29.60 in 5.0 mi West 20.7 mph 26.5 mph N/A   Overcast
7:58 AM 35.6 °F 25.5 °F 32.0 °F 87% 29.59 in 10.0 mi West 17.3 mph 27.6 mph N/A   Overcast
8:16 AM 35.6 °F 25.2 °F 32.0 °F 87% 29.59 in 10.0 mi West 18.4 mph 26.5 mph N/A   Scattered Clouds
8:35 AM 35.6 °F 24.2 °F 30.2 °F 81% 29.58 in 10.0 mi West 21.9 mph 27.6 mph N/A   Clear
8:36 AM 35.6 °F 24.2 °F 30.2 °F 81% 29.58 in 10.0 mi West 21.9 mph 27.6 mph N/A   Clear
8:55 AM 37.4 °F 26.4 °F 30.2 °F 75% 29.57 in 10.0 mi West 23.0 mph 27.6 mph N/A   Clear
8:56 AM 37.4 °F 27.2 °F 30.2 °F 75% 29.57 in 10.0 mi West 19.6 mph 27.6 mph N/A   Clear
9:15 AM 37.4 °F 26.4 °F 30.2 °F 75% 29.57 in 10.0 mi West 23.0 mph 31.1 mph N/A   Scattered Clouds
9:20 AM 37.4 °F 25.9 °F 30.2 °F 75% 29.57 in 10.0 mi West 25.3 mph 31.1 mph N/A   Mostly Cloudy
9:37 AM 37.4 °F 26.6 °F 30.2 °F 75% 29.58 in 10.0 mi West 21.9 mph 32.2 mph N/A   Mostly Cloudy
9:55 AM 37.4 °F 26.6 °F 30.2 °F 75% 29.57 in 10.0 mi West 21.9 mph 33.4 mph N/A   Mostly Cloudy
10:15 AM 37.4 °F 26.4 °F 30.2 °F 75% 29.57 in 10.0 mi West 23.0 mph 34.5 mph N/A   Light Drizzle
10:16 AM 37.4 °F 26.4 °F 30.2 °F 75% 29.57 in 10.0 mi West 23.0 mph 33.4 mph N/A   Light Drizzle
10:35 AM 39.2 °F 28.3 °F 30.2 °F 70% 29.58 in 10.0 mi West 25.3 mph 35.7 mph N/A   Mostly Cloudy
10:36 AM 39.2 °F 28.0 °F 30.2 °F 70% 29.58 in 10.0 mi West 26.5 mph 35.7 mph N/A   Mostly Cloudy
10:59 AM 37.4 °F 26.9 °F 30.2 °F 75% 29.58 in 10.0 mi West 20.7 mph 42.6 mph N/A   Drizzle
11:17 AM 37.4 °F 25.9 °F 32.0 °F 81% 29.59 in 3.0 mi West 25.3 mph 33.4 mph N/A Rain Light Rain
11:36 AM 37.4 °F 26.6 °F 33.8 °F 87% 29.59 in 3.0 mi West 21.9 mph 31.1 mph N/A   Scattered Clouds
11:55 AM 37.4 °F 26.1 °F 32.0 °F 81% 29.59 in 10.0 mi West 24.2 mph 31.1 mph N/A Rain Light Rain
11:56 AM 37.4 °F 26.4 °F 32.0 °F 81% 29.59 in 10.0 mi West 23.0 mph 31.1 mph N/A Rain Light Rain
12:15 PM 39.2 °F 27.6 °F 30.2 °F 70% 29.59 in 10.0 mi West 28.8 mph 36.8 mph N/A   Overcast
12:19 PM 39.2 °F 29.3 °F 30.2 °F 70% 29.59 in 10.0 mi West 20.7 mph 36.8 mph N/A   Overcast
12:37 PM 39.2 °F 29.0 °F 30.2 °F 70% 29.59 in 10.0 mi West 21.9 mph 31.1 mph N/A   Overcast
12:56 PM 39.2 °F 28.5 °F 30.2 °F 70% 29.59 in 10.0 mi West 24.2 mph 32.2 mph N/A   Overcast
1:15 PM 39.2 °F 28.5 °F 30.2 °F 70% 29.59 in 10.0 mi West 24.2 mph 32.2 mph N/A   Overcast
1:16 PM 39.2 °F 28.7 °F 30.2 °F 70% 29.59 in 10.0 mi West 23.0 mph 32.2 mph N/A   Overcast
1:35 PM 39.2 °F 28.7 °F 30.2 °F 70% 29.59 in 10.0 mi WNW 23.0 mph 34.5 mph N/A   Overcast
1:36 PM 39.2 °F 29.3 °F 30.2 °F 70% 29.59 in 10.0 mi West 20.7 mph 34.5 mph N/A   Overcast
1:59 PM 39.2 °F 28.0 °F 30.2 °F 70% 29.60 in 10.0 mi West 26.5 mph 34.5 mph N/A   Overcast
2:16 PM 39.2 °F 28.5 °F 30.2 °F 70% 29.60 in 10.0 mi West 24.2 mph 34.5 mph N/A   Overcast
2:36 PM 39.2 °F 28.7 °F 30.2 °F 70% 29.61 in 10.0 mi West 23.0 mph 35.7 mph N/A   Light Drizzle
2:55 PM 39.2 °F 28.7 °F 30.2 °F 70% 29.61 in 10.0 mi West 23.0 mph 32.2 mph N/A   Overcast
2:56 PM 39.2 °F 29.0 °F 30.2 °F 70% 29.61 in 10.0 mi West 21.9 mph 32.2 mph N/A   Overcast
3:15 PM 39.2 °F 28.7 °F 30.2 °F 70% 29.62 in 10.0 mi WNW 23.0 mph 35.7 mph N/A Rain Light Rain
3:19 PM 39.2 °F 28.0 °F 30.2 °F 70% 29.62 in 10.0 mi West 26.5 mph 35.7 mph N/A Rain Light Rain
3:38 PM 39.2 °F 29.3 °F 30.2 °F 70% 29.63 in 10.0 mi WNW 20.7 mph 36.8 mph N/A   Light Drizzle
3:56 PM 39.2 °F 29.3 °F 30.2 °F 70% 29.63 in 10.0 mi West 20.7 mph 36.8 mph N/A Rain Light Rain
4:15 PM 39.2 °F 29.0 °F 30.2 °F 70% 29.63 in 10.0 mi West 21.9 mph 33.4 mph N/A Rain Light Rain
4:16 PM 39.2 °F 29.0 °F 30.2 °F 70% 29.63 in 10.0 mi West 21.9 mph 29.9 mph N/A Rain Light Rain
4:35 PM 39.2 °F 29.3 °F 30.2 °F 70% 29.63 in 10.0 mi West 20.7 mph 29.9 mph N/A Rain Light Rain
4:58 PM 39.2 °F 28.5 °F 30.2 °F 70% 29.64 in 10.0 mi West 24.2 mph 32.2 mph N/A Rain Light Rain
5:16 PM 39.2 °F 28.7 °F 30.2 °F 70% 29.65 in 10.0 mi West 23.0 mph 36.8 mph N/A Rain Light Rain
5:35 PM 39.2 °F 29.8 °F 30.2 °F 70% 29.66 in 10.0 mi WNW 18.4 mph 32.2 mph N/A   Overcast
5:36 PM 39.2 °F 29.3 °F 30.2 °F 70% 29.66 in 10.0 mi West 20.7 mph 32.2 mph N/A   Overcast
5:55 PM 37.4 °F 26.9 °F 30.2 °F 75% 29.66 in 10.0 mi WNW 20.7 mph 34.5 mph N/A   Overcast
5:56 PM 37.4 °F 26.4 °F 30.2 °F 75% 29.66 in 10.0 mi WNW 23.0 mph 33.4 mph N/A   Overcast
6:15 PM 37.4 °F 25.0 °F 28.4 °F 70% 29.67 in 10.0 mi WNW 29.9 mph 38.0 mph N/A   Overcast
6:20 PM 37.4 °F 24.8 °F 28.4 °F 70% 29.67 in 10.0 mi WNW 31.1 mph 38.0 mph N/A   Overcast
6:37 PM 37.4 °F 25.9 °F 28.4 °F 70% 29.67 in 10.0 mi WNW 25.3 mph 40.3 mph N/A   Overcast
6:55 PM 37.4 °F 26.6 °F 28.4 °F 70% 29.67 in 10.0 mi WNW 21.9 mph 33.4 mph N/A   Overcast
7:15 PM 37.4 °F 26.9 °F 28.4 °F 70% 29.69 in 10.0 mi WNW 20.7 mph 35.7 mph N/A   Overcast
7:35 PM 37.4 °F 27.5 °F 30.2 °F 75% 29.70 in 10.0 mi WNW 18.4 mph 28.8 mph N/A   Overcast
7:36 PM 37.4 °F 27.5 °F 30.2 °F 75% 29.70 in 10.0 mi WNW 18.4 mph 28.8 mph N/A   Overcast
7:59 PM 37.4 °F 26.4 °F 30.2 °F 75% 29.70 in 10.0 mi WNW 23.0 mph 28.8 mph N/A   Overcast
8:16 PM 37.4 °F 27.8 °F 30.2 °F 75% 29.71 in 10.0 mi WNW 17.3 mph 28.8 mph N/A   Overcast
8:36 PM 37.4 °F 27.5 °F 30.2 °F 75% 29.71 in 10.0 mi WNW 18.4 mph 25.3 mph N/A   Overcast
8:55 PM 37.4 °F 27.2 °F 30.2 °F 75% 29.71 in 10.0 mi WNW 19.6 mph 26.5 mph N/A   Overcast
8:56 PM 37.4 °F 26.6 °F 30.2 °F 75% 29.71 in 10.0 mi WNW 21.9 mph 28.8 mph N/A   Overcast
9:15 PM 37.4 °F 28.2 °F 30.2 °F 75% 29.71 in 10.0 mi WNW 16.1 mph 26.5 mph N/A   Overcast
9:37 PM 37.4 °F 28.2 °F 30.2 °F 75% 29.71 in 10.0 mi WNW 16.1 mph 26.5 mph N/A   Overcast
9:56 PM 37.4 °F 27.8 °F 30.2 °F 75% 29.70 in 10.0 mi WNW 17.3 mph 24.2 mph N/A   Overcast
10:15 PM 37.4 °F 28.5 °F 30.2 °F 75% 29.70 in 10.0 mi WNW 15.0 mph 23.0 mph N/A   Overcast
10:16 PM 37.4 °F 28.5 °F 30.2 °F 75% 29.70 in 10.0 mi WNW 15.0 mph 23.0 mph N/A   Overcast
10:35 PM 37.4 °F 28.2 °F 30.2 °F 75% 29.70 in 10.0 mi WNW 16.1 mph 25.3 mph N/A   Overcast
10:36 PM 37.4 °F 28.2 °F 30.2 °F 75% 29.70 in 10.0 mi WNW 16.1 mph - N/A   Overcast
10:59 PM 37.4 °F 28.5 °F 30.2 °F 75% 29.70 in 10.0 mi WNW 15.0 mph 19.6 mph N/A   Overcast
11:36 PM 37.4 °F 28.5 °F 30.2 °F 75% 29.71 in 10.0 mi WNW 15.0 mph 23.0 mph N/A   Overcast
11:55 PM 37.4 °F 27.5 °F 30.2 °F 75% 29.70 in 10.0 mi West 18.4 mph 21.9 mph N/A   Overcast
11:56 PM 37.4 °F 27.8 °F 30.2 °F 75% 29.70 in 10.0 mi West 17.3 mph 20.7 mph N/A   Overcast